Doha, Qatar

11:49 PM AST on February 12, 2016 (GMT +0300)
Doha International

Weather History for OTBD - September, 2012

Change the Weather History Date:

Thursday, September 20, 2012

  Actual Average Record
Temperature  
Mean Temperature 94 °F -  
Max Temperature 102 °F 97 °F - ()
Min Temperature 85 °F 76 °F - ()
Cooling Degree Days 28    
Growing Degree Days 44 (Base 50)    
Moisture  
Dew Point 69 °F    
Average Humidity 48    
Maximum Humidity 71    
Minimum Humidity 21    
Precipitation  
Precipitation 0.00 in 0.00 in - ()
Sea Level Pressure  
Sea Level Pressure 29.71 in    
Wind  
Wind Speed 6 mph ()    
Max Wind Speed 14 mph    
Max Gust Speed -    
Visibility 4.8 miles    
Events      
T = Trace of Precipitation, MM = Missing Value Source: Averaged Metar Reports

Daily Weather History Graph

Daily Weather History Graph

Search for Another Location

Airport or City:

Trip Planner

Search our weather history database for the weather conditions in past years. The results will help you decide how hot, cold, wet, or windy it might be!

Date:

Astronomy

Sep. 20, 2012 Rise Set
Actual Time 5:21 AM AST 5:32 PM AST
Civil Twilight 4:58 AM AST 5:54 PM AST
Nautical Twilight 4:32 AM AST 6:21 PM AST
Astronomical Twilight 4:05 AM AST 6:48 PM AST
Moon 9:39 AM AST (9/20) 8:47 PM AST (9/20)
Length of Visible Light 12h 56m
Length of Day
12h 10m
Waxing Crescent, 23% of the Moon is Illuminated
Sep 20
Waxing Crescent
Sep 22
First Quarter
Sep 30
Full
Oct 8
Last Quarter
Oct 15
New

Hourly Weather History & Observations

Time (AST) Temp. Heat Index Dew Point Humidity Pressure Visibility Wind Dir Wind Speed Gust Speed Precip Events Conditions
12:00 AM 89.6 °F 91.1 °F 64.4 °F 43% 29.68 in - SW 4.6 mph - N/A   Clear
12:30 AM 89.6 °F 89.5 °F 60.8 °F 38% 29.68 in 5.6 mi WSW 4.6 mph - N/A   Unknown
1:00 AM 89.6 °F 88.1 °F 57.2 °F 33% 29.68 in 5.0 mi SW 4.6 mph - N/A   Unknown
1:30 AM 89.6 °F 88.1 °F 57.2 °F 33% 29.68 in 5.0 mi WSW 4.6 mph - N/A   Unknown
2:00 AM 87.8 °F 86.1 °F 55.4 °F 33% 29.68 in 5.0 mi SW 3.5 mph - N/A   Unknown
2:30 AM 87.8 °F 86.1 °F 55.4 °F 33% 29.68 in 5.6 mi SW 4.6 mph - N/A   Unknown
3:00 AM 88 °F - 53 °F 21% 29.68 in 6 mi SW 5.8 mph - -  
3:00 AM 87.8 °F 85.7 °F 53.6 °F 31% 29.68 in - SW 5.8 mph - N/A   Clear
3:30 AM 87.8 °F 86.1 °F 55.4 °F 33% 29.68 in - WSW 5.8 mph - N/A   Clear
4:00 AM 87.8 °F 86.1 °F 55.4 °F 33% 29.68 in - WSW 5.8 mph - N/A   Clear
4:30 AM 87.8 °F 86.5 °F 57.2 °F 35% 29.68 in - SW 4.6 mph - N/A   Clear
5:00 AM 87.8 °F 86.5 °F 57.2 °F 35% 29.68 in - WSW 3.5 mph - N/A   Clear
5:30 AM 87.8 °F 87.1 °F 59.0 °F 38% 29.68 in 5.0 mi SW 3.5 mph - N/A   Unknown
6:00 AM 87.8 °F 87.1 °F 59.0 °F 38% 29.71 in 4.3 mi SW 4.6 mph - N/A   Unknown
7:00 AM 87.8 °F - 48.2 °F 25% 29.74 in 3.1 mi SW 8.1 mph - N/A   Smoke
7:30 AM 89.6 °F - 50.0 °F 26% 29.74 in 3.1 mi SW 6.9 mph - N/A   Smoke
8:00 AM 91.4 °F 90.7 °F 59.0 °F 34% 29.74 in 3.7 mi SW 6.9 mph - N/A   Unknown
8:30 AM 93.2 °F 94.1 °F 62.6 °F 36% 29.74 in 3.7 mi SSW 6.9 mph - N/A   Unknown
9:00 AM 97 °F - 62 °F 22% 29.75 in 4 mi SW 6.9 mph - -   Widespread Dust
9:00 AM 96.8 °F 97.1 °F 60.8 °F 30% 29.74 in 3.7 mi SW 6.9 mph - N/A   Unknown
9:30 AM 100.4 °F 99.7 °F 57.2 °F 24% 29.74 in 3.7 mi SW 8.1 mph - N/A   Unknown
10:00 AM 100.4 °F 103.6 °F 64.4 °F 31% 29.74 in 3.7 mi East 10.4 mph - N/A   Unknown
10:30 AM 102.2 °F 101.4 °F 57.2 °F 22% 29.74 in 5.0 mi ESE 4.6 mph - N/A   Unknown
11:00 AM 100.4 °F 107.8 °F 69.8 °F 37% 29.74 in - ESE 10.4 mph - N/A   Clear
11:30 AM 98.6 °F 117.2 °F 78.8 °F 53% 29.74 in - ESE 11.5 mph - N/A   Clear
12:00 PM 98.6 °F 111.7 °F 75.2 °F 47% 29.71 in - ESE 12.7 mph - N/A   Clear
12:30 PM 96.8 °F 118.6 °F 80.6 °F 60% 29.71 in 5.6 mi ESE 12.7 mph - N/A   Unknown
1:00 PM 95.0 °F 119.6 °F 82.4 °F 67% 29.71 in 5.0 mi East 11.5 mph - N/A   Unknown
1:30 PM 96.8 °F 121.7 °F 82.4 °F 63% 29.71 in 5.0 mi East 11.5 mph - N/A   Unknown
2:00 PM 96.8 °F 121.7 °F 82.4 °F 63% 29.68 in 5.0 mi ESE 11.5 mph - N/A   Unknown
2:30 PM 96.8 °F 118.6 °F 80.6 °F 60% 29.68 in 5.0 mi ESE 12.7 mph - N/A   Unknown
3:00 PM 96 °F - 81 °F 54% 29.70 in 5 mi ESE 12.7 mph - -   Haze
3:00 PM 96.8 °F 118.6 °F 80.6 °F 60% 29.68 in 5.0 mi ESE 12.7 mph - N/A   Unknown
3:30 PM 95.0 °F 123.7 °F 84.2 °F 71% 29.68 in 5.0 mi ESE 13.8 mph - N/A   Unknown
4:00 PM 95.0 °F 115.8 °F 80.6 °F 63% 29.68 in 5.0 mi ESE 11.5 mph - N/A   Unknown
4:30 PM 95.0 °F 115.8 °F 80.6 °F 63% 29.68 in 5.0 mi East 10.4 mph - N/A   Unknown
5:00 PM 95.0 °F 109.7 °F 77.0 °F 56% 29.68 in 5.0 mi East 11.5 mph - N/A   Unknown
5:30 PM 93.2 °F 102.4 °F 73.4 °F 52% 29.71 in 5.0 mi ESE 10.4 mph - N/A   Unknown
6:00 PM 93.2 °F 105.0 °F 75.2 °F 56% 29.71 in 5.0 mi East 8.1 mph - N/A   Unknown
6:30 PM 93.2 °F 107.2 °F 77.0 °F 59% 29.71 in 5.0 mi East 8.1 mph - N/A   Unknown
7:00 PM 91.4 °F 107.2 °F 78.8 °F 66% 29.74 in 5.0 mi East 6.9 mph - N/A   Unknown
7:30 PM 91.4 °F 107.2 °F 78.8 °F 66% 29.74 in 5.0 mi ESE 5.8 mph - N/A   Unknown
8:00 PM 91.4 °F 107.2 °F 78.8 °F 66% 29.74 in 5.0 mi East 5.8 mph - N/A   Unknown
8:30 PM 91.4 °F 107.2 °F 78.8 °F 66% 29.74 in 5.0 mi ESE 5.8 mph - N/A   Unknown
9:00 PM 91 °F - 79 °F 60% 29.74 in 5 mi ESE 5.8 mph - -   Haze
9:00 PM 91.4 °F 107.2 °F 78.8 °F 66% 29.74 in 5.0 mi ESE 5.8 mph - N/A   Unknown
9:30 PM 91.4 °F 107.2 °F 78.8 °F 66% 29.74 in 5.0 mi ESE 6.9 mph - N/A   Unknown
10:00 PM 89.6 °F 102.2 °F 77.0 °F 66% 29.71 in 5.0 mi SE 6.9 mph - N/A   Unknown
10:30 PM 89.6 °F 104.7 °F 78.8 °F 70% 29.71 in 5.0 mi SSE 6.9 mph - N/A   Unknown
11:00 PM 89.6 °F 104.7 °F 78.8 °F 70% 29.71 in 5.0 mi SE 4.6 mph - N/A   Unknown
11:30 PM 89.6 °F 104.7 °F 78.8 °F 70% 29.71 in 5.0 mi SSE 5.8 mph - N/A   Unknown